Regional Weather Roundup
Issued by NWS

Home | Current Version | Previous Version | Text Only | Print | Product List | Glossary Off
Versions: 1 2 3 4 5 6 7 8 9 10 11 12 13 14 15 16 17 18 19 20 21 22 23 24 25 26 27

000
ASUS45 KTFX 271610
RWRMT
MONTANA REGIONAL WEATHER ROUNDUP
NATIONAL WEATHER SERVICE GREAT FALLS MT
1000 AM MDT WED JUL 27 2016

NOTE: "FAIR" INDICATES FEW OR NO CLOUDS BELOW 12000 FEET WITH NO
SIGNIFICANT WEATHER AND/OR OBSTRUCTIONS TO VISIBILITY.

MTZ001>007-043-271700-
WEST OF THE DIVIDE

CITY           SKY/WX    TMP DP  RH WIND       PRES   REMARKS
KALISPELL      MOSUNNY   72  53  51 NE8       30.14R
MISSOULA       SUNNY     70  51  51 CALM      30.15S
BUTTE          MOSUNNY   65  42  43 CALM      30.26S
MULLAN PASS    SUNNY     66  49  54 VRB3      30.27R
ANACONDA         N/A     70  46  43 CALM      30.21F
DEER LODGE       N/A     64  48  55 CALM      30.24F
EUREKA           N/A     70  54  56 CALM      30.17R
HAMILTON         N/A     72  46  40 CALM      30.16S
LIBBY            N/A     70  52  52 CALM      30.14F
PLAINS           N/A     74  52  46 CALM      30.12S
RONAN            N/A     75  55  49 CALM      30.18R
$$

MTZ008-052>055-271700-
SOUTHWEST MONTANA

CITY           SKY/WX    TMP DP  RH WIND       PRES   REMARKS
BOZEMAN        SUNNY     68  47  46 SW3       30.22S
DILLON         SUNNY     65  46  50 W5        30.23F
W YELLOWSTONE  SUNNY     63  39  42 CALM      30.34F
ENNIS          SUNNY     68  39  34 CALM      30.29S
THREE FORKS      N/A     70  29  21 CALM      30.18S
TWIN BRIDGES     N/A     64  46  52 S6        30.20S
$$

MTZ009-010-012-014-046-048-049-054-271700-
EAST SLOPES AND CENTRAL MONTANA

CITY           SKY/WX    TMP DP  RH WIND       PRES   REMARKS
CUT BANK       MOSUNNY   66  54  65 NE6       30.20F
GREAT FALLS    SUNNY     69  54  58 N7        30.20R
MALMSTROM AFB  SUNNY     68  55  64 SE1       30.20R
HELENA         SUNNY     70  53  54 CALM      30.18F
CHOTEAU          N/A     68  55  64 CALM      30.22F
CONRAD           N/A     68  60  75 E1        30.20S
$$

MTZ011-013-016-021-045-047-050-051-271700-
NORTH CENTRAL MONTANA

CITY           SKY/WX    TMP DP  RH WIND       PRES   REMARKS
HAVRE          CLOUDY    65  60  84 SW8       30.15F
LEWISTOWN      MOSUNNY   64  56  75 W5        30.20S
N BAR RANCH      N/A     70  54  56 VRB5      30.21S
CHINOOK          N/A     70  61  73 SE3       30.14F
$$

MTZ017>020-022>027-061-062-271700-
NORTHEAST MONTANA

CITY           SKY/WX    TMP DP  RH WIND       PRES   REMARKS
GLASGOW        CLOUDY    65  62  90 NE6       30.13S
JORDAN           N/A     69  61  75 E6        30.14R
SIDNEY         MOSUNNY   68  58  70 NE6       30.13S
WOLF POINT     CLOUDY    67  62  84 NE5       30.13S
PLENTYWOOD       N/A     66  57  72 NE3       30.15S
SCOBEY           N/A     65  53  65 CALM      30.13F
$$

MTZ028>42-056>058-271700-
SOUTHCENTRAL AND SOUTHEAST MONTANA

CITY           SKY/WX    TMP DP  RH WIND       PRES   REMARKS
BAKER          CLOUDY    67  60  78 SE10      30.15R THUNDER
BILLINGS       SUNNY     73  57  57 N8        30.15F
LIVINGSTON     SUNNY     71  44  37 CALM      30.19F
MILES CITY     CLOUDY    66  61  84 N8        30.11S
EKALAKA          N/A     69  58  68 W24       30.14R
FORSYTH          N/A     72  63  73 CALM      30.11F
LAUREL           N/A     71  56  59 E3        30.14R
ROUNDUP          N/A     71  57  61 NW2       30.06S
$$

REGIONAL REPORTS...DAKOTAS

CITY           SKY/WX    TMP DP  RH WIND       PRES   REMARKS
WILLISTON      MOSUNNY   71  57  61 NE3       30.13S
MINOT          CLOUDY    73  60  63 VRB5      30.13F
DICKINSON      CLOUDY    65  60  84 E5        30.13S
BEACH          PTSUNNY   66  63  88 E8        30.17S
CROSBY         PTSUNNY   68  64  88 E5        30.16F
WATFORD CITY     N/A    N/A N/A N/A MISG        N/A
BISMARCK       SUNNY     73  64  73 VRB5      30.11S
GRAND FORKS    MOSUNNY   71  59  65 N16       30.06S
FARGO          SUNNY     73  57  57 N16       30.03S
BUFFALO SD       N/A     67  62  84 E9        30.08R
RAPID CITY     CLOUDY    72  61  68 NE7       30.09F
$$

REGIONAL REPORTS...WYOMING/IDAHO/WASHINGTON

CITY           SKY/WX    TMP DP  RH WIND       PRES   REMARKS
GILLETTE       SUNNY     79  52  38 S13       30.16S
SHERIDAN       SUNNY     79  54  41 NW5       30.15R
BUFFALO WY     SUNNY     76  54  46 SE9       30.19F
CODY           SUNNY     73  46  38 NE6       30.21S
YELLOWSTONE LA   N/A     58  45  62 SE5       30.42R
IDAHO FALLS    SUNNY     71  43  36 NE5       30.20R
SALMON         SUNNY     63  46  55 CALM      30.18F
BOISE          SUNNY     81  43  26 VRB3      30.06S HAZE
SPOKANE        MOSUNNY   72  53  51 NE6       30.09R
$$

REGIONAL REPORTS...ALBERTA

CITY           SKY/WX    TMP DP  RH WIND       PRES   REMARKS
EDMONTON       MOSUNNY   73  61  64 N2        30.12S
CALGARY        PTSUNNY   70  54  56 VRB3      30.21R
LETHBRIDGE     PTSUNNY   66  61  82 VRB3      30.18R
MEDICINE HAT   PTSUNNY   73  63  68 VRB2      30.16R
$$

REGIONAL REPORTS...SASKATCHEWAN

CITY           SKY/WX    TMP DP  RH WIND       PRES   REMARKS
SWIFT CURRENT  PTSUNNY   68  57  68 E10       30.17S
REGINA         PTSUNNY   70  57  64 VRB3      30.17F
SASKATOON      MOSUNNY   70  54  56 SW3       30.19S
$$




USA.gov is the U.S. government's official web portal to all federal, state and local government web resources and services.